Total_Precipitation_Accumulation
2.05 2.12 2.16 2.19 2.02 2.14 2.32 2.56 2.46 2.54 2.57 2.34 2.06 1.96 2.05 2.06 2.16 2.15 2.11 2.31 2.24 2.25 2.73 2.85 2.54 2.18 1.99 1.71 1.50 1.28 1.14 1.06 0.93 0.74 0.63 0.68 0.75 0.81 0.74 0.64 0.60 0.57 0.50
2.42 2.37 2.22 2.25 2.13 2.14 2.25 2.48 2.55 2.90 2.88 2.78 2.35 2.16 2.20 2.23 2.23 2.33 2.25 2.50 2.38 2.13 2.38 2.67 2.76 2.61 2.36 2.13 1.86 1.57 1.36 1.25 1.11 0.85 0.73 0.68 0.72 0.79 0.77 0.77 0.72 0.66 0.57
2.59 2.51 2.43 2.25 2.24 2.28 2.44 2.54 2.63 2.90 2.92 2.84 2.66 2.46 2.35 2.10 1.97 2.03 2.06 2.22 2.18 2.07 2.17 2.39 2.69 2.80 2.69 2.55 2.38 2.13 1.78 1.49 1.28 1.05 0.86 0.72 0.64 0.70 0.72 0.77 0.78 0.75 0.64
2.63 2.67 2.46 2.21 2.33 2.30 2.45 2.75 2.86 3.03 3.18 3.18 2.89 2.62 2.48 2.28 2.03 1.98 1.87 1.85 2.04 1.72 1.94 2.19 2.41 2.57 2.86 3.01 3.06 2.96 2.51 1.97 1.55 1.33 1.10 0.89 0.75 0.71 0.66 0.69 0.75 0.71 0.60
2.52 2.63 2.45 2.34 2.41 2.58 2.62 2.46 2.99 3.27 3.32 3.32 2.77 2.65 2.29 2.13 1.97 1.82 1.82 1.66 1.72 1.73 1.81 1.85 2.00 2.14 2.68 3.32 3.65 3.69 3.43 2.74 2.12 1.77 1.54 1.31 1.08 0.93 0.75 0.67 0.66 0.60 0.52
2.41 2.65 2.36 2.33 2.49 2.73 2.77 2.84 3.23 3.33 3.18 3.32 2.80 2.44 2.04 1.70 1.63 1.60 1.49 1.47 1.44 1.37 1.46 1.78 2.13 1.93 2.34 2.91 3.24 3.45 3.70 3.56 2.93 2.27 1.98 1.77 1.58 1.33 1.02 0.83 0.75 0.71 0.62
2.55 2.91 2.58 2.76 2.67 2.70 2.76 2.91 3.16 3.11 2.94 3.29 3.31 2.59 1.80 1.37 1.35 1.22 1.18 1.21 1.15 1.20 1.46 1.89 2.22 2.28 2.05 2.06 2.27 2.63 3.22 3.59 3.43 2.86 2.48 2.25 2.11 1.77 1.38 1.17 1.01 0.89 0.81
2.71 2.68 2.83 2.74 2.77 2.84 2.67 2.76 3.07 2.91 2.55 2.95 3.26 3.18 2.36 1.82 1.37 0.92 1.02 1.06 1.12 1.28 1.35 1.44 1.83 2.20 2.12 2.29 2.01 1.86 2.45 3.16 3.62 3.56 3.18 2.79 2.48 2.11 1.80 1.61 1.36 1.13 0.95
2.75 2.77 2.68 2.58 2.67 2.61 2.55 2.55 2.77 2.86 2.63 2.63 3.02 3.36 2.74 2.08 1.60 1.10 1.00 0.97 1.21 1.51 1.52 1.54 1.68 1.95 2.08 2.33 2.40 2.25 2.07 2.30 3.02 3.87 3.96 3.36 2.71 2.22 1.94 1.87 1.80 1.55 1.32
3.02 2.80 2.62 2.51 2.42 2.32 2.42 2.20 2.46 2.66 2.73 2.40 2.53 2.62 2.48 2.39 2.27 1.64 1.23 1.13 1.40 1.58 1.63 1.62 1.69 1.84 2.00 2.33 2.57 2.40 1.92 1.72 2.09 3.09 3.79 3.71 3.13 2.43 2.04 2.08 2.38 2.27 1.84
3.10 2.76 2.68 2.58 2.47 2.33 2.26 2.21 2.38 2.30 2.36 2.32 2.35 2.37 2.38 2.38 2.25 2.06 1.68 1.53 1.47 1.25 1.28 1.42 1.64 1.89 1.99 2.18 2.50 2.38 2.14 2.02 1.96 2.08 2.44 2.80 2.98 2.72 2.43 2.44 2.86 3.13 2.89
2.71 2.51 2.44 2.39 2.28 2.27 2.27 2.24 2.21 2.17 2.23 2.30 2.27 2.24 2.33 2.34 2.30 2.36 2.04 1.78 1.62 1.36 1.31 1.38 1.52 1.69 1.77 1.86 1.90 2.04 1.98 1.95 1.83 1.74 1.75 1.87 2.13 2.42 2.63 2.85 3.26 3.62 3.75
1.96 1.95 2.04 2.07 2.01 2.05 2.07 2.18 2.08 2.00 2.09 2.22 2.17 2.17 2.25 2.26 2.31 2.42 2.31 1.92 1.78 1.58 1.63 1.53 1.43 1.59 1.63 1.79 1.96 1.93 1.65 1.61 1.46 1.42 1.41 1.47 1.63 1.86 2.05 2.27 2.73 3.24 3.65
1.69 1.76 1.86 1.84 1.81 1.83 1.80 2.01 1.87 1.81 1.90 1.94 1.87 2.19 2.20 1.96 2.16 2.31 2.38 2.37 2.15 1.98 2.05 1.84 1.60 1.56 1.67 1.81 1.92 1.85 1.57 1.44 1.23 1.13 1.12 1.14 1.20 1.35 1.55 1.78 2.03 2.30 2.63
1.70 1.76 1.71 1.78 1.79 1.83 1.89 1.99 1.85 1.80 1.97 1.92 1.88 2.10 2.06 1.95 2.03 2.15 2.35 2.51 2.58 2.38 2.24 2.09 1.79 1.63 1.68 1.73 1.91 1.75 1.74 1.59 1.29 1.16 1.11 1.08 1.06 1.12 1.25 1.45 1.63 1.78 2.00
1.77 1.80 1.77 1.84 1.80 1.76 1.79 1.84 1.65 1.66 1.86 1.92 2.00 2.18 2.14 2.05 2.10 2.15 2.30 2.55 2.79 2.77 2.40 1.97 1.80 1.76 1.86 1.79 1.97 1.73 1.67 1.70 1.43 1.21 1.11 1.11 1.09 1.09 1.15 1.30 1.46 1.60 1.74
1.79 1.74 1.70 1.71 1.70 1.67 1.73 1.76 1.59 1.71 1.83 1.88 1.90 2.04 2.11 2.21 2.24 2.24 2.38 2.50 2.73 2.96 2.68 2.16 2.05 2.06 2.17 2.15 2.04 1.79 1.57 1.49 1.34 1.29 1.14 1.07 1.06 1.08 1.14 1.20 1.33 1.46 1.55
1.76 1.78 1.76 1.75 1.64 1.66 1.83 1.88 1.77 1.84 1.92 1.89 1.93 2.05 1.98 2.13 2.28 2.26 2.38 2.39 2.49 2.79 2.70 2.45 2.39 2.33 2.32 2.22 2.22 2.02 1.70 1.54 1.47 1.43 1.22 1.10 1.07 1.05 1.09 1.12 1.22 1.38 1.50
1.80 1.88 1.91 1.93 1.90 1.92 1.92 1.98 2.07 2.05 1.98 1.89 1.95 1.95 1.91 2.10 2.11 2.22 2.35 2.32 2.29 2.44 2.62 2.57 2.52 2.59 2.54 2.42 2.34 2.16 1.98 1.91 1.61 1.53 1.44 1.32 1.29 1.26 1.24 1.22 1.22 1.29 1.40
1.88 1.99 1.99 2.10 2.27 2.31 2.29 2.23 2.14 2.09 2.04 1.98 1.95 1.91 1.88 1.92 1.96 2.04 2.17 2.26 2.32 2.44 2.56 2.60 2.64 2.76 2.73 2.76 2.72 2.49 2.37 2.29 1.97 1.61 1.60 1.50 1.43 1.34 1.25 1.17 1.15 1.20 1.30
1.78 2.07 2.20 2.27 2.51 2.64 2.48 2.48 2.40 2.31 2.29 2.12 2.01 1.92 1.79 1.80 1.86 1.90 1.87 1.97 2.11 2.25 2.28 2.37 2.45 2.66 2.73 2.83 2.83 2.68 2.55 2.52 2.33 1.91 1.74 1.61 1.54 1.43 1.39 1.35 1.25 1.20 1.24
1.69 1.85 1.99 2.10 2.15 2.00 2.15 2.16 2.15 2.18 2.22 2.11 2.04 1.98 1.83 1.73 1.70 1.67 1.57 1.59 1.67 1.78 1.96 2.18 2.26 2.45 2.65 2.81 3.01 3.07 2.91 2.72 2.57 2.28 2.15 2.02 1.76 1.67 1.49 1.35 1.32 1.14 1.04
1.64 1.73 1.75 1.82 1.80 1.85 1.87 1.65 1.60 1.58 1.74 1.85 1.92 1.92 1.69 1.54 1.62 1.55 1.58 1.54 1.53 1.64 1.73 1.96 2.14 2.24 2.46 2.66 2.90 3.05 3.04 2.92 2.73 2.57 2.43 2.30 1.98 1.77 1.56 1.43 1.34 1.09 0.94
1.69 1.65 1.69 1.73 1.82 1.82 1.73 1.50 1.47 1.43 1.56 1.68 1.76 1.79 1.76 1.69 1.68 1.72 1.64 1.52 1.44 1.51 1.60 1.57 1.62 1.78 2.04 2.40 2.58 2.62 2.77 2.79 2.66 2.48 2.42 2.39 2.14 1.92 1.71 1.57 1.47 1.17 0.99
1.85 1.78 1.82 1.89 1.89 1.85 1.73 1.52 1.49 1.44 1.55 1.59 1.60 1.63 1.65 1.60 1.67 1.55 1.45 1.43 1.42 1.46 1.44 1.42 1.38 1.42 1.56 1.78 2.11 2.27 2.36 2.33 2.22 1.98 1.87 1.95 1.93 1.90 1.82 1.69 1.50 1.32 1.10
2.25 2.22 2.14 2.03 1.92 1.84 1.82 1.53 1.42 1.37 1.47 1.54 1.62 1.59 1.53 1.40 1.37 1.31 1.30 1.41 1.39 1.38 1.42 1.36 1.27 1.20 1.16 1.31 1.62 1.80 1.89 1.93 1.83 1.77 1.51 1.49 1.54 1.59 1.71 1.58 1.41 1.33 1.25